[[{"header":{"parameterUnit":"m.s-1","parameterCategory":1,"la1":30.2991,"la2":30.254,"lo1":-89.0895,"lo2":-89.0444,"dy":0.0017,"dx":0.0017,"nx":28,"ny":28,"refTime":"2025-07-24T09:00:00:Z","depth":0,"parameterNumber":2,"parameterNumberName":"U-component_of_WINDS"},"data":[0,0,0,0,0,0,0,0,0,0,0,0,0,0,0,0,0,0,0,0,0,0,0,0,0,0,0,0,0,0,0,0,0,0,0,0,0,0,0,0,0,0,0,0,0,0,0,0,0,0,0,0,0,0,0,0,0,0,-1.6022,-1.6022,0,-1.6034,-1.6034,-1.6035,-1.6047,-1.6047,-1.6047,-1.6047,-1.6059,-1.606,-1.606,0,0,0,0,0,0,0,0,0,0,0,0,0,-1.601,-1.601,-1.6022,-1.6022,-1.6022,-1.6034,-1.6034,-1.6035,-1.6047,-1.6047,-1.6047,-1.6047,-1.6059,-1.606,-1.606,0,0,0,0,0,0,0,0,0,0,0,0,0,-1.6018,-1.601,-1.6022,-1.603,-1.6031,-1.6034,-1.6034,-1.6035,-1.6047,-1.6047,-1.6047,-1.6047,-1.6059,-1.606,-1.606,-1.6056,0,0,-1.6061,-1.6061,0,0,0,0,0,0,0,0,-1.6017,-1.6018,-1.6029,-1.6029,-1.603,-1.6039,-1.6035,-1.6042,-1.6047,-1.6041,-1.6047,-1.6047,-1.6052,-1.6053,-1.6055,-1.6057,-1.6058,-1.6061,-1.6061,-1.6061,-1.6061,0,0,0,0,0,0,0,-1.6017,-1.6018,-1.6027,-1.6029,-1.603,-1.6033,-1.6034,-1.6036,-1.6045,-1.6041,-1.6042,-1.6043,-1.6053,-1.6055,-1.6055,-1.6058,-1.6061,-1.6061,-1.6061,-1.6061,-1.6058,-1.6058,0,0,0,0,0,0,-1.6015,-1.6017,-1.6027,-1.6027,-1.6024,-1.6033,-1.6035,-1.6036,-1.6045,-1.6047,-1.6043,-1.6044,-1.6054,-1.6055,-1.6056,-1.6052,-1.6061,-1.6061,-1.6061,-1.6058,-1.6058,-1.6058,0,0,0,0,0,0,-1.6015,-1.6016,-1.6026,-1.6023,-1.6024,-1.6033,-1.6035,-1.6036,-1.6038,-1.6047,-1.6048,-1.6043,-1.6054,-1.6056,-1.6056,-1.6053,-1.6061,-1.6061,-1.6058,-1.6058,-1.6058,-1.6046,0,0,0,0,0,0,-1.6014,-1.6016,-1.6014,-1.6022,-1.6024,-1.6026,-1.6034,-1.6036,-1.6038,-1.6039,-1.6047,-1.6049,-1.6055,-1.6056,-1.6057,-1.6054,-1.6062,-1.6059,-1.6058,-1.6058,-1.6046,-1.6045,-1.6044,0,0,0,0,0,-1.6014,-1.601,-1.6014,-1.6015,-1.6023,-1.6026,-1.6027,-1.6034,-1.6038,-1.6037,-1.6043,-1.6048,-1.6054,-1.6056,-1.6057,-1.6054,-1.6059,-1.6058,-1.6058,-1.6047,-1.6045,-1.6044,0,0,0,0,0,0,-1.6001,-1.6012,-1.6016,-1.6015,-1.6019,-1.6028,-1.6027,-1.6032,-1.6035,-1.6036,-1.6045,-1.6047,-1.6046,-1.605,-1.6053,-1.6051,-1.6057,-1.6057,-1.6048,-1.6047,-1.6046,-1.6044,-1.6062,0,0,0,0,0,-1.5999,-1.6,-1.6009,-1.6007,-1.6009,-1.6018,-1.6019,-1.6024,-1.6029,-1.6031,-1.6037,-1.6042,-1.6044,-1.6046,-1.6049,-1.6047,-1.6049,-1.6046,-1.6044,-1.6043,-1.6043,-1.6042,-1.6041,-1.6056,-1.6056,-1.6056,0,0,-1.5993,-1.5998,-1.5999,-1.6005,-1.6009,-1.6011,-1.6019,-1.602,-1.6021,-1.6032,-1.6033,-1.6037,-1.6043,-1.6042,-1.6042,-1.6045,-1.6039,-1.6043,-1.6042,-1.6042,-1.6041,-1.604,-1.6039,-1.6055,-1.6055,-1.6055,0,0,-1.5982,-1.5987,-1.5986,-1.599,-1.5996,-1.6002,-1.6002,-1.601,-1.6013,-1.6014,-1.6022,-1.6024,-1.6028,-1.6032,-1.6035,-1.6027,-1.6032,-1.6027,-1.602,-1.6019,-1.6018,-1.6017,-1.6014,-1.6013,-1.6027,-1.6027,-1.6027,0,-1.5974,-1.5977,-1.5985,-1.5986,-1.5988,-1.5998,-1.5997,-1.6001,-1.6007,-1.6009,-1.6013,-1.6019,-1.6023,-1.6024,-1.6022,-1.6024,-1.6024,-1.6026,-1.6018,-1.6017,-1.6016,-1.6013,-1.6012,-1.6026,-1.6026,-1.6026,-1.6026,0,-1.5966,-1.5968,-1.5966,-1.5973,-1.5975,-1.5975,-1.5984,-1.5985,-1.599,-1.5996,-1.5997,-1.6003,-1.6007,-1.6008,-1.6013,-1.6009,-1.6011,-1.6016,-1.6022,-1.6014,-1.6011,-1.601,-1.6025,-1.6025,-1.6026,-1.6026,0,0,-1.5948,-1.5959,-1.5958,-1.5961,-1.5969,-1.5971,-1.5972,-1.5976,-1.5977,-1.5982,-1.5982,-1.5986,-1.5991,-1.5994,-1.6,-1.5999,-1.5992,-1.6004,-1.6005,-1.6002,-1.5988,-1.5984,-1.5983,-1.5996,-1.5996,-1.5996,-1.5988,0,-1.5938,-1.594,-1.5947,-1.5947,-1.5948,-1.5958,-1.5958,-1.5963,-1.5969,-1.5971,-1.5977,-1.5979,-1.5985,-1.5987,-1.5987,-1.5993,-1.599,-1.5994,-1.5997,-1.5997,-1.5994,-1.5981,-1.5977,-1.5969,-1.5987,-1.5987,-1.5987,0,-1.5928,-1.5932,-1.5931,-1.5939,-1.594,-1.594,-1.5945,-1.5947,-1.5954,-1.5957,-1.5961,-1.5967,-1.5969,-1.5975,-1.5977,-1.5979,-1.5981,-1.5984,-1.5984,-1.5984,-1.5991,-1.5981,-1.5966,-1.5965,-1.5985,-1.5985,-1.5985,0,-1.5914,-1.5919,-1.5919,-1.5922,-1.5932,-1.5932,-1.5936,-1.5942,-1.5944,-1.5949,-1.595,-1.5955,-1.5957,-1.596,-1.5968,-1.5972,-1.5969,-1.5976,-1.5972,-1.5972,-1.597,-1.597,-1.5955,-1.5972,-1.5972,-1.5973,-1.5973,0,-1.5902,-1.5901,-1.5913,-1.5913,-1.5913,-1.5922,-1.5921,-1.5926,-1.5932,-1.5933,-1.5942,-1.5943,-1.5953,-1.5956,-1.5962,-1.5962,-1.5964,-1.5967,-1.5968,-1.5965,-1.5965,-1.5966,-1.5967,-1.5972,-1.5972,-1.5972,-1.5972,0,-1.5886,-1.5894,-1.5895,-1.5904,-1.5907,-1.5906,-1.5914,-1.5914,-1.592,-1.5922,-1.5923,-1.5932,-1.5935,-1.5944,-1.5949,-1.5953,-1.5952,-1.5955,-1.595,-1.5951,-1.5946,-1.5946,-1.5931,-1.593,-1.5948,-1.5948,-1.5948,0,-1.5878,-1.5877,-1.5887,-1.5888,-1.5892,-1.5894,-1.5897,-1.5906,-1.5908,-1.5916,-1.5915,-1.5919,-1.5923,-1.5928,-1.5935,-1.5939,-1.5942,-1.5937,-1.5943,-1.594,-1.5942,-1.5941,-1.5941,-1.5935,-1.5935,-1.5935,-1.5934,0,-1.5862,-1.5866,-1.587,-1.5874,-1.5877,-1.5881,-1.5886,-1.5886,-1.5897,-1.5899,-1.5903,-1.5905,-1.5911,-1.5915,-1.592,-1.5925,-1.5931,-1.5933,-1.5932,-1.5929,-1.5925,-1.5927,-1.5946,-1.5933,-1.5933,-1.5933,-1.5933,-1.5933,-1.585,-1.585,-1.5856,-1.586,-1.5864,-1.5868,-1.5869,-1.5876,-1.5879,-1.5884,-1.589,-1.5892,-1.5899,-1.5907,-1.5911,-1.5913,-1.5917,-1.5916,-1.5915,-1.5915,-1.5914,-1.5926,-1.5915,-1.5915,-1.5915,-1.5915,-1.5915,0,-1.5834,-1.5839,-1.5842,-1.5848,-1.5851,-1.5857,-1.5863,-1.5865,-1.5867,-1.5873,-1.5876,-1.588,-1.5884,-1.5892,-1.5897,-1.5897,-1.59,-1.5898,-1.5898,-1.5899,-1.591,-1.591,-1.5895,-1.5895,-1.5895,-1.5895,-1.5895,-1.5895,-1.5826,-1.5827,-1.5832,-1.5835,-1.584,-1.5842,-1.5845,-1.5849,-1.5854,-1.5858,-1.5861,-1.5866,-1.5873,-1.5878,-1.5882,-1.5884,-1.5885,-1.5882,-1.5885,-1.5896,-1.5898,-1.5899,-1.5899,-1.5882,-1.5882,-1.5873,-1.5873,-1.5873]},{"header":{"parameterUnit":"m.s-1","parameterCategory":1,"la1":30.2991,"la2":30.254,"lo1":-89.0895,"lo2":-89.0444,"dy":0.0017,"dx":0.0017,"nx":28,"ny":28,"refTime":"2025-07-24T09:00:00:Z","depth":0,"parameterNumber":3,"parameterNumberName":"V-component_of_WINDS"},"data":[0,0,0,0,0,0,0,0,0,0,0,0,0,0,0,0,0,0,0,0,0,0,0,0,0,0,0,0,0,0,0,0,0,0,0,0,0,0,0,0,0,0,0,0,0,0,0,0,0,0,0,0,0,0,0,0,0,0,6.9821,6.9822,0,6.9899,6.99,6.9901,6.9823,6.982,6.9817,6.9814,6.9888,6.9893,6.9897,0,0,0,0,0,0,0,0,0,0,0,0,0,6.9596,6.9601,6.9821,6.9822,6.9823,6.9899,6.99,6.9901,6.9823,6.982,6.9816,6.9813,6.9886,6.9892,6.9898,0,0,0,0,0,0,0,0,0,0,0,0,0,6.9686,6.9602,6.9821,6.9793,6.9792,6.9899,6.99,6.9901,6.9824,6.982,6.9815,6.9811,6.9884,6.9891,6.9899,7.0034,0,0,6.9921,6.9924,0,0,0,0,0,0,0,0,6.9681,6.9694,6.9796,6.9795,6.9794,6.9847,6.9848,6.9946,6.9825,6.9812,6.9814,6.9809,6.9877,6.9885,6.9909,7.0038,7.0041,6.9921,6.9926,6.9929,6.9931,0,0,0,0,0,0,0,6.9675,6.969,6.9851,6.9798,6.9796,6.9775,6.9782,6.9866,6.9869,6.9813,6.9807,6.9818,6.9876,6.9903,6.9911,7.0042,6.9921,6.9927,6.9932,6.9935,7.028,7.0285,0,0,0,0,0,0,6.9673,6.9686,6.9849,6.9854,6.9725,6.9782,6.9791,6.9834,6.9868,6.9869,6.9822,6.9814,6.9893,6.9902,6.9913,7.007,6.9929,6.9935,6.9939,7.0276,7.0282,7.0287,0,0,0,0,0,0,6.9668,6.9688,6.9846,6.9768,6.9787,6.9791,6.984,6.9838,6.9865,6.9875,6.9874,6.9849,6.9889,6.9903,7.0004,7.0072,6.9939,6.9945,7.027,7.0277,7.0284,7.0389,0,0,0,0,0,0,6.9662,6.9687,6.9741,6.977,6.9791,6.9938,6.9845,6.9843,6.9878,6.9869,6.99,6.9901,6.9887,6.9994,7.0011,7.0079,6.9951,7.0264,7.0273,7.0282,7.0379,7.0399,7.0416,0,0,0,0,0,6.9654,6.9767,6.9744,6.9764,6.9859,6.9943,6.9954,6.9937,6.9884,6.9936,6.9942,6.99,7.0063,7.0005,7.0024,7.0095,7.0259,7.0271,7.0281,7.0371,7.0395,7.0415,0,0,0,0,0,0,6.9743,6.977,6.9745,6.9871,6.9905,6.9929,6.9995,6.9964,7.0012,7.0001,6.9976,6.9984,7.0091,7.0103,7.0039,7.0226,7.0152,7.0167,7.0214,7.0236,7.0254,7.0247,6.9957,0,0,0,0,0,6.9778,6.9846,6.9865,6.9974,6.9992,6.9991,7.0027,7.0011,7.0044,7.0058,7.0071,7.0104,7.0161,7.02,7.0254,7.0382,7.0385,7.044,7.0458,7.0473,7.0485,7.0549,7.0573,7.0323,7.0323,7.0323,0,0,6.9849,6.9872,6.9916,6.9992,7.0017,7.0084,7.0004,7.008,7.0129,7.0069,7.0165,7.0176,7.021,7.0324,7.0375,7.0338,7.0555,7.0487,7.0499,7.0503,7.0563,7.0587,7.0608,7.033,7.0329,7.0328,0,0,7.0013,7.0039,7.0131,7.0157,7.0196,7.0194,7.0216,7.0245,7.025,7.0347,7.0302,7.0359,7.0461,7.0486,7.0512,7.0683,7.0644,7.0701,7.0795,7.0858,7.0877,7.0894,7.0952,7.0973,7.0714,7.0715,7.0715,0,7.0096,7.0199,7.0181,7.026,7.0293,7.0244,7.0334,7.036,7.0414,7.0436,7.0394,7.0518,7.0538,7.0655,7.0697,7.0721,7.0742,7.0696,7.0876,7.0893,7.0909,7.0963,7.0985,7.0721,7.072,7.072,7.0719,0,7.0297,7.0369,7.0437,7.0492,7.0532,7.0617,7.0609,7.0652,7.0632,7.0634,7.073,7.0752,7.0808,7.0835,7.0817,7.0949,7.0924,7.0881,7.0805,7.094,7.099,7.1011,7.073,7.0728,7.0726,7.0724,0,0,7.0518,7.0561,7.0586,7.0608,7.0647,7.07,7.0781,7.0837,7.0872,7.0911,7.0975,7.1061,7.102,7.105,7.1033,7.1089,7.1218,7.1037,7.1038,7.1067,7.1361,7.1391,7.1416,7.1194,7.1198,7.1201,7.1356,0,7.068,7.0822,7.0807,7.094,7.1004,7.0957,7.1027,7.1056,7.1059,7.1111,7.1114,7.1174,7.1117,7.1134,7.1188,7.1191,7.1276,7.118,7.125,7.1253,7.124,7.1443,7.1476,7.1621,7.1376,7.138,7.1382,0,7.0888,7.0934,7.1074,7.11,7.1126,7.1189,7.1237,7.129,7.132,7.1318,7.1351,7.1324,7.1401,7.1327,7.1431,7.1366,7.1393,7.1399,7.1404,7.1407,7.1323,7.1448,7.1668,7.1688,7.1414,7.1411,7.1409,0,7.103,7.1128,7.1223,7.1244,7.1278,7.1322,7.1338,7.1365,7.1399,7.1441,7.1461,7.1512,7.1538,7.1576,7.1562,7.151,7.1668,7.1593,7.1665,7.1665,7.1698,7.1696,7.1922,7.1722,7.1722,7.1721,7.1721,0,7.1211,7.1297,7.1287,7.1346,7.144,7.1421,7.1514,7.1523,7.1547,7.1604,7.1567,7.1621,7.1601,7.1653,7.1643,7.1728,7.1741,7.1739,7.1735,7.1741,7.174,7.1756,7.1744,7.1727,7.1726,7.1725,7.1724,0,7.1385,7.1382,7.1482,7.1506,7.1514,7.1582,7.16,7.1653,7.1653,7.1726,7.1741,7.1741,7.18,7.179,7.1856,7.1848,7.1954,7.1939,7.1944,7.1939,7.201,7.2002,7.2252,7.2282,7.2066,7.2068,7.207,0,7.1499,7.1564,7.1594,7.163,7.1649,7.1709,7.1742,7.1726,7.1762,7.1801,7.1849,7.1905,7.1948,7.2043,7.2047,7.2096,7.2079,7.2163,7.2086,7.2089,7.2076,7.2071,7.2076,7.2178,7.218,7.2182,7.2184,0,7.1699,7.1694,7.1746,7.1797,7.1839,7.1877,7.1912,7.1943,7.1929,7.1972,7.2032,7.2066,7.2132,7.2186,7.2231,7.2244,7.2211,7.2209,7.2227,7.2232,7.2231,7.2229,7.1981,7.2202,7.22,7.2199,7.2198,7.2197,7.1844,7.1899,7.1928,7.1985,7.201,7.2043,7.2093,7.2099,7.215,7.2203,7.219,7.2257,7.2283,7.234,7.2359,7.2409,7.2377,7.2405,7.2412,7.2418,7.2425,7.2226,7.2417,7.2417,7.2416,7.2416,7.2415,0,7.204,7.2056,7.211,7.2159,7.2204,7.2171,7.2207,7.2245,7.2305,7.2333,7.2377,7.2444,7.2496,7.2504,7.2553,7.2591,7.2577,7.2604,7.2599,7.2602,7.2452,7.2429,7.2615,7.2614,7.2614,7.2614,7.2614,7.2614,7.2146,7.2236,7.2234,7.2333,7.2348,7.2415,7.2438,7.2466,7.2488,7.2565,7.2609,7.2614,7.2633,7.2683,7.2728,7.2728,7.2746,7.2779,7.2774,7.2633,7.2613,7.2594,7.2572,7.2784,7.2784,7.2919,7.292,7.2921]}]]